Weather History for Sarasota, FL

Change the Weather History Date:

Saturday, January 10, 2004

  Actual Average Record
Temperature  
Mean Temperature 52 °F 61 °F  
Max Temperature 62 °F 71 °F 85 °F (2013)
Min Temperature 42 °F 52 °F 28 °F (1970)
Degree Days  
Heating Degree Days 13 6  
Month to date heating degree days 58  
Since 1 July heating degree days 213  
Cooling Degree Days 0 2  
Month to date cooling degree days 20  
Year to date cooling degree days 20  
Growing Degree Days 2 (Base 50)    
Moisture  
Dew Point 47 °F    
Average Humidity 85    
Maximum Humidity 100    
Minimum Humidity 68    
Precipitation  
Precipitation 0.00 in 0.09 in 1.23 in (1997)
Month to date precipitation 1.18  
Year to date precipitation 1.18  
Sea Level Pressure  
Sea Level Pressure 30.11 in    
Wind  
Wind Speed 15 mph (North)    
Max Wind Speed 21 mph    
Max Gust Speed 26 mph    
Visibility 10 miles    
Events Rain    
T = Trace of Precipitation, MM = Missing Value Source: NWS Daily Summary

Daily Weather History Graph

Daily Weather History Graph

Search for Another Location

Airport:

Trip Planner

Search our weather history database for the weather conditions in past years. The results will help you decide how hot, cold, wet, or windy it might be!

Date:

Astronomy

Jan. 10, 2004 Rise Set
Actual Time 7:21 AM EST 5:53 PM EST
Civil Twilight 6:56 AM EST 6:18 PM EST
Nautical Twilight 6:27 AM EST 6:47 PM EST
Astronomical Twilight 5:59 AM EST 7:16 PM EST
Moon 8:49 PM EST (1/10) 9:42 AM EST (1/10)
Length of Visible Light 11h 22m
Length of Day
10h 31m
Waning Gibbous, 91% of the Moon is Illuminated
Jan 10
Waning Gibbous
Jan 14
Last Quarter
Jan 21
New
Jan 29
First Quarter
Feb 6
Full

Hourly Weather History & Observations

Time (EST) Temp. Windchill Dew Point Humidity Pressure Visibility Wind Dir Wind Speed Gust Speed Precip Events Conditions
12:53 AM 62.1 °F - 62.1 °F 100% 29.99 in 9.0 mi NW 20.7 mph 26.5 mph 0.00 in Rain Light Rain
1:00 AM 60.8 °F - 60.8 °F 100% 29.99 in 10.0 mi NW 17.3 mph 25.3 mph 0.00 in   Overcast
1:09 AM 60.8 °F - 60.8 °F 100% 30.00 in 10.0 mi NW 16.1 mph 23.0 mph 0.00 in Rain Light Rain
1:29 AM 60.8 °F - 59.0 °F 94% 30.01 in 10.0 mi NW 15.0 mph - 0.00 in   Overcast
1:53 AM 59.0 °F - 59.0 °F 100% 30.01 in 10.0 mi NW 18.4 mph 24.2 mph 0.00 in   Overcast
2:08 AM 59.0 °F - 57.2 °F 94% 30.01 in 10.0 mi NNW 19.6 mph 25.3 mph N/A   Overcast
2:18 AM 57.2 °F - 57.2 °F 100% 30.02 in 10.0 mi NNW 15.0 mph 23.0 mph N/A   Overcast
2:44 AM 57.2 °F - 55.4 °F 94% 30.01 in - NNW 17.3 mph - N/A   Overcast
2:53 AM 57.0 °F - 55.9 °F 96% 30.01 in 10.0 mi NNW 13.8 mph 21.9 mph N/A   Overcast
3:53 AM 55.0 °F - 54.0 °F 96% 30.01 in 10.0 mi NNW 13.8 mph 20.7 mph N/A   Overcast
4:10 AM 55.4 °F - 53.6 °F 94% 30.02 in 10.0 mi North 15.0 mph - N/A   Overcast
4:53 AM 54.0 °F - 51.1 °F 90% 30.03 in 10.0 mi NNW 11.5 mph 20.7 mph N/A   Overcast
5:53 AM 53.1 °F - 48.9 °F 86% 30.04 in 10.0 mi NNW 12.7 mph - N/A   Overcast
6:53 AM 52.0 °F - 46.9 °F 83% 30.06 in 10.0 mi NNW 12.7 mph - N/A   Overcast
7:53 AM 52.0 °F - 46.0 °F 80% 30.08 in 10.0 mi North 11.5 mph 19.6 mph N/A   Overcast
8:53 AM 51.1 °F - 45.0 °F 80% 30.11 in 10.0 mi North 12.7 mph - N/A   Overcast
9:53 AM 50.0 °F - 45.0 °F 83% 30.14 in 10.0 mi North 10.4 mph - N/A   Overcast
10:53 AM 51.1 °F - 43.0 °F 74% 30.15 in 10.0 mi North 15.0 mph - N/A   Overcast
11:53 AM 50.0 °F - 44.1 °F 80% 30.14 in 10.0 mi North 8.1 mph - N/A   Overcast
12:53 PM 51.1 °F - 42.1 °F 71% 30.12 in 10.0 mi North 11.5 mph - N/A   Overcast
1:53 PM 51.1 °F - 41.0 °F 68% 30.12 in 10.0 mi North 15.0 mph - N/A   Overcast
2:53 PM 48.0 °F - 41.0 °F 77% 30.13 in 10.0 mi NNE 10.4 mph 18.4 mph N/A   Overcast
3:53 PM 48.9 °F - 41.0 °F 74% 30.14 in 10.0 mi North 15.0 mph - N/A   Overcast
4:53 PM 48.9 °F - 42.1 °F 77% 30.16 in 10.0 mi North 11.5 mph - N/A   Overcast
5:53 PM 48.0 °F - 41.0 °F 77% 30.19 in 10.0 mi NNE 10.4 mph - N/A   Overcast
6:53 PM 46.9 °F - 39.9 °F 77% 30.21 in 10.0 mi NNE 10.4 mph - N/A   Overcast
7:53 PM 46.0 °F 40.6 °F 37.9 °F 73% 30.23 in 10.0 mi NE 11.5 mph - N/A   Overcast
8:53 PM 44.1 °F 37.7 °F 37.9 °F 79% 30.25 in 10.0 mi North 12.7 mph - N/A   Mostly Cloudy
9:00 PM 44.6 °F 40.2 °F 37.4 °F 76% 30.25 in 10.0 mi North 8.1 mph 17.3 mph N/A   Scattered Clouds
9:53 PM 44.1 °F 39.0 °F 37.9 °F 79% 30.27 in 10.0 mi North 9.2 mph - N/A   Clear
10:38 PM 42.8 °F 35.8 °F 37.4 °F 81% 30.28 in 10.0 mi North 13.8 mph - N/A   Mostly Cloudy
10:53 PM 44.1 °F 37.7 °F 37.9 °F 79% 30.28 in 10.0 mi North 12.7 mph 18.4 mph N/A   Overcast
11:53 PM 42.1 °F 35.7 °F 37.9 °F 85% 30.29 in 9.0 mi North 11.5 mph - N/A   Mostly Cloudy